Location: Cilcennin
(52.2167°N, 4.1667°W)
Time: 09:27:08
(UTC+00:00)

Daily predictions for brighter satellites

Satellite Brightness Start Highest point End
(mag) Time Altitude Azimuth Time Altitude Azimuth Time Altitude Azimuth
BREEZE-M DEB (TANK) 3.9 17:26:36 10° SW 17:29:51 63° SSE 17:40:35 10° ENE
Cosmos 2219 3.9 17:27:35 10° NNW 17:32:51 35° NE 17:38:06 10° ESE
Lacrosse 5 2.0 17:28:02 10° WSW 17:33:06 82° NNW 17:38:13 10° ENE
USA 281 3.6 17:28:15 10° SSE 17:34:48 73° WSW 17:41:24 10° NNW
CSL-04 DEB 4.3 17:31:20 10° NNE 17:35:19 74° ESE 17:39:14 10° S
Cosmos 1655 Rocket 4.2 17:31:01 10° N 17:37:28 88° W 17:43:53 10° S
AQUARIUS 4.2 17:33:58 10° SSE 17:38:29 89° ENE 17:43:01 10° NNW
CZ-4B R/B 1.9 17:36:09 10° NNE 17:39:14 36° E 17:42:14 10° SSE
Meteor 2-10 4.4 17:35:39 10° SSW 17:40:42 69° WNW 17:45:45 10° N
USA 305 3.1 17:38:08 10° W 17:42:26 68° N 17:46:44 10° E
Cosmos 1544 Rocket 4.2 17:38:19 10° SSW 17:42:38 59° WNW 17:47:00 10° N
Cosmos 1758 Rocket 3.6 17:39:18 10° N 17:43:44 65° ENE 17:48:06 10° SSE
CZ-4C R/B 3.7 17:39:50 10° WNW 17:45:05 31° N 17:51:17 10° ENE
Cosmos 371 Rocket 4.1 17:41:11 10° SW 17:45:55 54° WNW 17:50:43 10° NNE
Cosmos 1726 Rocket 4.5 17:42:55 10° SE 17:46:33 26° E 17:50:13 10° NNE
Meteor 2-14 Rocket 4.5 17:40:27 10° N 17:46:36 64° ENE 17:52:40 10° SSE
CZ-4C R/B 4.1 17:43:55 10° N 17:47:00 43° WNW 17:50:08 10° SW
Okean-O 3.3 17:43:05 10° SE 17:47:01 32° ENE 17:50:59 10° N
Cosmos 2278 Rocket 4.4 17:44:20 10° WNW 17:47:45 16° NNW 17:51:12 10° NNE
NOSS 2-2 (E) 4.4 17:42:49 10° NW 17:47:55 64° NE 17:55:02 10° ESE
USA 306 3.0 17:44:23 10° W 17:48:40 68° N 17:52:49 11° E
Meteor 2-21 4.4 17:44:14 10° N 17:50:26 71° ENE 17:56:33 10° SSE
GRACE-FO 1 4.5 17:48:21 10° N 17:51:59 77° E 17:55:35 10° S
GRACE-FO 2 4.5 17:48:44 10° N 17:52:22 77° E 17:55:58 10° S
Cosmos 1818 3.6 17:48:49 10° SW 17:54:16 89° SE 17:59:46 10° NE
Cosmos 1943 Rocket 3.5 17:49:10 10° WSW 17:54:19 38° NW 17:59:28 10° NNE
CZ-4B R/B 4.1 17:52:48 10° S 17:58:18 55° WSW 18:03:46 10° NNW
Aureole 3 4.3 17:57:12 10° SE 17:59:14 16° E 18:00:42 12° ENE
Cosmos 2266 Rocket 4.2 17:53:59 10° NNW 18:00:11 78° W 18:06:28 10° S
Cosmos 1331 Rocket 4.5 17:55:47 10° S 18:00:30 38° ESE 18:05:15 10° NE
Cosmos 1606 Rocket 3.9 17:56:41 10° SSE 18:00:48 43° E 18:05:00 10° NNE
SKYMED 2 4.1 17:57:06 10° NNE 18:01:10 37° E 18:05:12 10° SSE
Meteor 1-16 Rocket 4.3 17:58:20 10° SSW 18:04:00 82° WNW 18:09:32 10° NNE
ATLAS 5 CENTAUR R/B 2.5 17:59:55 10° WSW 18:04:02 45° NNW 18:08:47 10° NE
NOSS 2-2 (D) 4.3 17:59:46 10° NW 18:04:49 68° NE 18:11:51 10° ESE
Cosmos 2228 3.2 18:00:59 10° S 18:05:04 49° E 18:09:13 10° NNE
SL-4 R/B 1.8 18:01:38 10° WSW 18:05:08 68° SSE 18:08:01 16° E
Cosmos 1953 3.4 18:01:50 10° SSW 18:05:40 47° WNW 18:09:33 10° N
Cosmos 1908 3.4 18:03:35 10° SSW 18:07:25 78° WNW 18:11:19 10° N
Cosmos 292 Rocket 4.4 18:05:25 10° SSE 18:09:41 33° ESE 18:14:00 10° NE
CZ-2C R/B 3.6 18:04:22 10° SE 18:09:51 46° ENE 18:15:13 10° N
Cosmos 1346 Rocket 4.1 18:07:51 10° NNE 18:10:58 21° ENE 18:12:50 16° E
Cosmos 2227 Rocket 2.5 18:05:52 10° NNW 18:11:20 46° NE 18:16:45 10° ESE
Cosmos 1726 4.4 18:08:15 10° SW 18:11:30 28° WNW 18:14:47 10° N
ARGOS 4.0 18:10:09 10° ESE 18:14:48 30° ENE 18:19:29 10° N
Cosmos 1892 3.6 18:12:28 10° N 18:15:53 28° ENE 18:19:17 10° SE
NOSS 2-1 (C) 4.1 18:14:35 10° WSW 18:17:48 41° NNW 18:21:29 10° NE
SeaSat 1 2.9 18:14:54 11° ESE 18:19:23 43° NE 18:24:04 10° NNW
Meteor 2-16 Rocket 4.4 18:14:28 10° N 18:20:36 77° ENE 18:26:42 10° SSE
CZ-2D R/B 3.1 18:17:30 10° SSE 18:21:18 70° ENE 18:25:07 10° N
Cosmos 2263 Rocket 3.8 18:17:49 10° NNW 18:21:45 19° NNE 18:24:14 14° ENE
Cosmos 968 Rocket 3.9 18:17:26 10° NNW 18:22:27 43° NE 18:26:57 12° SE
ATLAS 2AS CENTAUR R/B 3.7 18:15:29 10° NW 18:22:41 38° NNE 18:27:53 17° ENE
USA 215 3.4 18:17:28 15° E 18:22:55 66° NNE 18:29:24 10° WNW
NOSS 2-1 (D) 4.2 18:19:54 10° WSW 18:23:05 38° NNW 18:26:38 11° NE
Cosmos 1656 Rocket 4.5 18:19:51 10° SW 18:25:19 52° NW 18:30:52 10° NNE
Cosmos 1953 Rocket 3.5 18:21:10 10° N 18:25:35 86° E 18:30:00 10° S
Cosmos 1110 Rocket 4.0 18:20:53 10° S 18:26:04 65° ESE 18:31:16 10° NNE
Cosmos 2058 Rocket 3.4 18:23:12 10° SSE 18:27:26 42° E 18:31:42 10° NNE
CSL-04 Rocket 4.0 18:22:17 10° SE 18:27:35 47° ENE 18:32:52 10° N
CZ-4 R/B 4.4 18:23:29 10° SSE 18:27:39 87° ENE 18:31:52 10° NNW
Cosmos 1486 Rocket 4.3 18:23:45 10° NNW 18:28:58 50° ENE 18:33:46 12° SE
USA 307 2.9 18:26:10 10° WNW 18:30:28 73° N 18:32:53 25° E
HJ-1C 4.2 18:30:28 27° E 18:31:16 31° ENE 18:34:17 10° N
Cosmos 1300 2.6 18:27:55 10° S 18:31:43 68° E 18:35:31 10° NNE
USA 308 2.9 18:30:55 10° WNW 18:35:13 74° N 18:37:27 27° E
Cosmos 1697 Rocket 4.5 18:32:00 10° SE 18:32:53 13° SE 18:32:53 13° SE
Helios 1A Rocket 3.0 18:34:58 10° SSE 18:39:06 79° WSW 18:43:15 10° NNW
Timation 2 Rocket 4.3 18:34:51 10° NW 18:41:22 74° WSW 18:48:07 10° SSE
GEOS 3 Rocket 3.8 18:37:07 10° SE 18:42:28 80° SW 18:47:54 10° NW
S3M 4.3 18:39:11 10° SSE 18:44:48 40° E 18:50:28 10° NNE
PSLV R/B 3.8 18:41:01 10° NNE 18:45:15 80° ESE 18:49:25 10° SSW
Cosmos 1825 3.4 18:42:05 10° N 18:44:30 24° NE 18:44:30 24° NE
Cosmos 1939 Rocket 3.9 18:43:03 10° S 18:46:55 48° W 18:50:45 10° NNW
Cosmos 1689 Rocket 2.2 18:44:12 10° N 18:47:06 71° WNW 18:49:58 10° SSW
COSMO-SKYMED 1 2.6 18:45:00 10° NNE 18:49:21 80° WNW 18:53:42 10° SSW
Cosmos 1408 2.9 18:47:02 10° N 18:50:31 41° ENE 18:50:33 41° ENE
FALCON 9 DEB 3.1 18:48:27 10° W 18:51:53 76° N 18:52:39 50° ENE
Cosmos 2297 Rocket 2.2 18:46:12 10° NNW 18:51:56 89° WSW 18:57:36 10° SSE
Cosmos 2369 Rocket 4.1 18:48:55 10° W 18:53:42 27° NW 18:58:30 10° NNE
In-Cosmos 22 Rocket 4.0 18:50:15 10° NNW 18:55:38 90° SSW 19:01:03 10° S
Cosmos 2058 2.9 18:52:24 10° N 18:56:26 54° ENE 18:57:58 33° SE
Cosmos 1417 Rocket 4.5 18:50:57 10° S 18:57:03 59° E 19:03:15 10° NNE
MOS 1 Rocket 3.5 18:53:08 10° NNE 18:57:32 46° E 19:02:10 10° S
TRACE 4.5 18:55:29 10° NNE 18:59:14 76° ESE 19:02:58 10° S
Cosmos 1340 2.9 18:56:29 10° NNW 19:00:16 71° W 19:04:02 10° S
H-2A R/B 2.1 18:55:44 10° SSE 19:01:07 78° ENE 19:06:37 10° NNW
ERS-2 4.4 18:58:16 10° N 19:01:19 25° WNW 19:04:20 10° WSW
SL-08 RB Rocket 3.9 19:03:12 42° E 19:03:43 44° ENE 19:08:00 10° N
CSL-04 Debris 4.1 18:58:44 10° SSE 19:04:10 88° ENE 19:09:41 10° NNW
CZ-4 R/B 2.0 19:00:53 10° S 19:04:42 53° W 19:08:31 10° NNW
Aureole 3 Rocket 3.1 19:02:21 10° S 19:06:12 87° W 19:11:35 10° N
YAOGAN 1 3.1 19:05:19 10° S 19:09:36 60° W 19:13:54 10° NNW
Cosmos 1076 Rocket 3.4 19:06:31 10° N 19:10:43 56° ENE 19:10:59 55° E
ERBS 3.3 19:07:37 10° WNW 19:10:45 35° N 19:10:57 35° N
CZ-4B R/B 4.2 19:08:54 10° NNW 19:11:16 19° WNW 19:13:36 10° WSW
SJ-6B 4.3 19:13:02 25° NNE 19:13:02 25° NNE 19:15:16 10° N
SJ-11-01 4.3 19:10:53 10° SSE 19:15:33 80° WSW 19:20:16 10° NNW
Cosmos 1553 Rocket 3.9 19:09:36 10° S 19:15:59 85° E 19:22:18 10° N
Lacrosse 5 2.4 19:11:35 10° W 19:16:31 49° N 19:18:09 36° NE
Cosmos 2219 3.7 19:11:41 10° NW 19:17:21 59° WSW 19:22:59 10° SSE
Ariane Rocket 3.2 19:18:51 47° E 19:19:12 48° ENE 19:24:07 10° N
Cosmos 1400 Rocket 3.1 19:15:28 10° SSW 19:19:34 68° WNW 19:23:41 10° N
Geosat 3.8 19:17:11 22° NE 19:20:28 77° ESE 19:25:30 10° SSW
BREEZE-M R/B 3.9 19:16:21 10° W 19:20:33 69° S 19:23:15 38° ESE
USA 305 2.7 19:18:18 10° WNW 19:22:38 85° SSW 19:22:59 74° SE
Okean-O 4.2 19:19:21 10° SSW 19:23:27 36° W 19:27:35 10° NNW
MetOp-A 4.3 19:24:28 49° ENE 19:24:47 49° ENE 19:29:57 10° N
Cosmos 44 3.0 19:20:25 10° SW 19:24:58 86° SE 19:26:06 53° NE
Cosmos 2082 3.6 19:22:33 10° NNW 19:28:20 84° ENE 19:30:17 43° SE
USA 306 2.8 19:24:32 10° WNW 19:28:51 81° SSW 19:28:58 80° S
CZ-4C R/B 3.5 19:29:14 10° NW 19:35:18 39° NNE 19:37:16 34° NE
Cosmos 1745 Rocket 4.2 19:31:39 10° NNW 19:37:53 71° W 19:44:10 10° S
EO 1 Delta rocket 4.1 19:38:34 10° NNE 19:43:04 57° NE 19:43:04 57° NE
SL-4 R/B 2.8 19:41:01 10° W 19:43:36 45° W 19:43:36 45° W
Meteor 2-1 Rocket 4.0 19:39:53 10° S 19:45:25 87° E 19:50:59 10° NNE
Cosmos 1346 Rocket 3.8 19:43:45 10° NNW 19:47:34 44° W 19:48:22 38° SW
Meteor 2-15 Rocket 4.3 19:41:33 10° S 19:47:42 90° W 19:53:54 10° N
ATLAS 5 CENTAUR R/B 3.6 19:46:02 10° WNW 19:49:50 24° N 19:51:05 22° NNE
NOSS 3-4 (A) 3.8 19:45:48 10° NW 19:52:32 67° NE 19:53:45 58° E
NOSS 3-4 (C) 3.8 19:45:54 10° NW 19:52:38 67° NE 19:53:51 58° E
IRS-1A Rocket 4.1 19:53:01 71° SSE 19:53:40 86° ENE 19:59:14 10° NNW
ARGOS 3.7 19:50:40 17° S 19:54:49 55° W 20:00:11 10° NNW
Cosmos 2227 Rocket 3.3 19:50:06 10° NW 19:55:22 40° WSW 19:59:01 19° S
Cosmos 1844 Rocket 4.4 19:52:22 10° NNW 19:55:55 20° NNE 19:55:55 20° NNE
SeaSat 1 3.6 19:54:42 26° SSW 19:56:57 40° WSW 20:01:37 10° NW
CZ-2C R/B 4.2 19:51:33 10° NNE 19:53:40 24° NNE 19:53:40 24° NNE
Meteor 2-10 Rocket 3.8 19:53:15 10° SSW 19:58:35 67° WNW 20:03:44 10° N
USA 215 3.2 20:04:50 60° SSE 20:05:56 73° SSW 20:12:31 10° WNW
MOS 1 4.2 20:05:51 82° SSW 20:06:04 85° WSW 20:11:48 10° NNW
Cosmos 1656 3.8 20:01:01 10° SW 20:06:35 72° WNW 20:07:52 53° N
Cosmos 2263 Rocket 2.7 20:01:21 10° NNW 20:05:55 48° NNE 20:05:55 48° NNE
Cosmos 1709 Rocket 4.2 20:01:44 10° NNW 20:08:05 73° W 20:10:33 39° S
USA 307 4.3 20:06:18 10° WNW 20:09:04 36° W 20:09:04 36° W
ATLAS 2AS CENTAUR R/B 2.7 20:07:13 10° NW 20:14:54 71° NE 20:15:19 69° ENE
Cosmos 1697 Rocket 4.4 20:12:56 10° SSW 20:14:44 21° SSW 20:14:44 21° SSW
Cosmos 2315 Rocket 4.1 20:23:59 65° N 20:23:59 65° N 20:29:15 10° N
Resurs 01 Rocket 4.0 20:28:50 16° N 20:28:50 16° N 20:29:42 10° N
SJ 16-02 4.0 20:33:22 10° N 20:33:54 13° N 20:33:54 13° N
H-2A R/B 4.5 20:37:14 10° SW 20:41:10 20° W 20:45:08 10° NW
Lacrosse 5 3.8 20:55:01 10° WNW 20:57:20 27° NW 20:57:20 27° NW
CZ-4C R/B 3.5 21:17:47 10° NW 21:22:26 49° NW 21:22:26 49° NW
Cosmos 2263 Rocket 4.5 21:45:40 10° NW 21:47:37 20° WNW 21:47:37 20° WNW
ATLAS 2AS CENTAUR R/B 4.3 21:58:43 10° NW 22:02:44 29° WNW 22:02:44 29° WNW
